User: anonymous   Login
Location: Unspecified
(0.0000°N, 0.0000°E)
Time: 05:34:20
(UTC+02:00)
Language:

Cosmos 1515 Rocket - Orbit

View from above orbital plane
View from above orbital plane
View from above satellite
View from above satellite

Ground track
Ground track

The orbit data is extracted from the following two-line orbital elements,

1 14552U 83122B   15145.84554336  .00000219  00000-0  23828-4 0  9996
2 14552 082.5263 061.7775 0018662 120.2897 240.0167 14.83181793697502
Epoch (UTC): 25 May 2015 20:17:34
Eccentricity: 0.0018662
inclination: 82.5263°
perigee height: 606 km
apogee height: 632 km
right ascension of ascending node: 61.7775°
argument of perigee: 120.2897°
revolutions per day: 14.83181793
mean anomaly at epoch: 240.0167°
orbit number at epoch: 69750

The dashed part of the orbit path shows where the satellite is in the earth's shadow,  

DLR